Regional Weather Roundup
Issued by NWS Little Rock, AR

Home | Current Version | Previous Version | Graphics & Text | Print | Product List | Glossary On
Versions: 1 2 3 4 5 6 7 8 9 10 11 12 13 14 15 16 17 18 19 20 21 22 23 24 25 26 27 28 29 30 31 32 33 34 35 36 37 38 39 40 41 42 43 44 45 46 47 48 49 50
000
ASUS44 KLZK 230805
RWRLZK

WEATHER ROUNDUP FOR ARKANSAS
NATIONAL WEATHER SERVICE LITTLE ROCK AR
300 AM CDT SAT AUG 23 2014

NOTE: "FAIR" INDICATES FEW OR NO CLOUDS BELOW 12,000 FEET WITH NO
SIGNIFICANT WEATHER AND/OR OBSTRUCTIONS TO VISIBILITY.

ARZ001-003-010-029-230900-
NORTHWEST ARKANSAS

CITY           SKY/WX    TMP DP  RH WIND       PRES   REMARKS
FAYETTEVILLE   CLEAR     72  71  97 CALM      30.01F
FORT SMITH     CLEAR     78  75  90 CALM      29.97S
HARRISON       CLEAR     79  71  76 S6        30.02S
BENTONVILLE    CLEAR     75  72  88 S5        30.01S
ROGERS         CLEAR     76  71  85 SE5       30.02S
SILOAM SPGS    CLEAR     75  66  73 S7        30.01S
HIGHFILL       CLEAR     74  70  87 S6        30.00F
$$

ARZ004-005-016-230900-
NORTH CENTRAL ARKANSAS

CITY           SKY/WX    TMP DP  RH WIND       PRES   REMARKS
BATESVILLE     CLEAR     81  75  83 SW7       29.98R HX  86
FLIPPIN        CLEAR     79  72  78 SW3       29.99S
MTN HOME       CLEAR     76  73  91 CALM      29.99S
$$

ARZ040-041-230900-
WEST CENTRAL ARKANSAS

CITY           SKY/WX    TMP DP  RH WIND       PRES   REMARKS
MENA           CLEAR     81  72  74 CALM      30.03S
MOUNT IDA      CLEAR     74  72  93 CALM      29.99S
$$

ARZ009-017-025-026-028-230900-
NORTHEAST ARKANSAS

CITY           SKY/WX    TMP DP  RH WIND       PRES   REMARKS
CORNING        FAIR      77  75  94 SW6       29.97S
JONESBORO      CLEAR     79  74  84 SW6       29.97R
NEWPORT        CLEAR     79  76  90 SE6       29.98S
WALNUT RIDGE   CLEAR     77  73  88 CALM      29.96S
BLYTHEVILLE    CLEAR     77  75  93 SW6       29.98R
$$

ARZ022-023-033-042-044-230900-
CENTRAL ARKANSAS

CITY           SKY/WX    TMP DP  RH WIND       PRES   REMARKS
LITTLE ROCK    CLEAR     80  73  79 CALM      29.99S
N LITTLE ROCK    N/A     81  74  81 SW5       29.99S HX  86
JACKSONVILLE   CLEAR     77  76  95 CALM      29.99S
SEARCY           N/A     77  77 100 CALM        N/A
HOT SPRINGS    CLEAR     78  73  84 CALM      30.01S
RUSSELLVILLE   CLEAR     75  73  93 CALM      29.98F
CLINTON        FAIR      73  73 100 CALM      30.00S FOG
$$

ARZ036-230900-
EAST ARKANSAS

CITY           SKY/WX    TMP DP  RH WIND       PRES   REMARKS
WEST MEMPHIS   CLEAR     79  75  87 SW6       29.98R
$$

ARZ050-053-066-070-073-230900-
SOUTHWEST ARKANSAS

CITY           SKY/WX    TMP DP  RH WIND       PRES   REMARKS
ARKADELPHIA    FOG       74  74 100 CALM      30.00S VSB 1/2
CAMDEN         CLEAR     73  70  88 CALM      29.99F FOG
TEXARKANA      CLEAR     76  72  87 S3        30.00S
EL DORADO      CLEAR     73  71  93 CALM      30.01S
DE QUEEN       CLEAR     72  71  97 E3        29.98S FOG
$$

ARZ056-057-069-230900-
SOUTHEAST ARKANSAS

CITY           SKY/WX    TMP DP  RH WIND       PRES   REMARKS
PINE BLUFF     CLEAR     74  73  97 CALM      29.99S
STUTTGART      CLEAR     79  73  83 S6        29.99S
MONTICELLO     CLEAR     79  72  79 W5        30.00S

$$





USA.gov is the U.S. government's official web portal to all federal, state and local government web resources and services.